• Processing (Info)

  • MPEC 2019-C59 : 2019 CN1

    The following Minor Planet Electronic Circular may be linked-to from your own Web pages, but must not otherwise be redistributed electronically.

    A form allowing access to any MPEC is at the bottom of this page.


    Read MPEC 2019-C58 Read MPEC 2019-C60


    M.P.E.C. 2019-C59                                Issued 2019 Feb. 7, 18:07 UT
    
         The Minor Planet Electronic Circulars contain information on unusual
             minor planets and routine data on comets.  They are published
        on behalf of Division F of the International Astronomical Union by the
              Minor Planet Center, Smithsonian Astrophysical Observatory,
                              Cambridge, MA 02138, U.S.A.
    
                 Prepared using the Tamkin Foundation Computer Network
    
                                  MPC@CFA.HARVARD.EDU
                URL https://www.minorplanetcenter.net/    ISSN 1523-6714
    
                                       2019 CN1
    
    Observations:
         K19C01N* C2019 02 04.41944 10 50 25.566+12 09 12.66         20.5 wUEC059F51
         K19C01N  C2019 02 04.43107 10 50 25.336+12 10 18.91         20.6 wUEC059F51
         K19C01N  C2019 02 04.44274 10 50 25.103+12 11 25.40         20.5 wUEC059F51
         K19C01N  C2019 02 04.45455 10 50 24.867+12 12 32.47         20.4 wUEC059F51
         K19C01N KC2019 02 04.98980510 50 17.74 +13 02 59.3          20.3 GVEC059L01
         K19C01N KC2019 02 04.99130710 50 17.69 +13 03 07.9          20.4 GVEC059L01
         K19C01N KC2019 02 04.99970710 50 17.55 +13 03 55.4          20.4 GVEC059L01
         K19C01N KC2019 02 05.00186510 50 17.54 +13 04 07.2          20.3 GVEC059L01
         K19C01N KC2019 02 05.00402010 50 17.47 +13 04 19.7          20.2 GVEC059L01
         K19C01N KC2019 02 05.33931 10 50 12.69 +13 35 58.2                oEC059711
         K19C01N KC2019 02 05.34242 10 50 12.63 +13 36 15.2                oEC059711
         K19C01N KC2019 02 05.34607 10 50 12.55 +13 36 36.0                oEC059711
         K19C01N KC2019 02 06.04322 10 50 01.40 +14 41 44.4          20.8 RoEC059K88
         K19C01N KC2019 02 06.05037 10 50 01.25 +14 42 24.0          20.3 RoEC059K88
         K19C01N KC2019 02 06.05751 10 50 01.09 +14 43 03.7          20.2 RoEC059K88
         K19C01N  C2019 02 06.12653 10 49 59.70 +14 49 27.9          20.5 VVEC059033
         K19C01N  C2019 02 06.12909 10 49 59.65 +14 49 42.0          19.9 VVEC059033
         K19C01N  C2019 02 06.13163 10 49 59.58 +14 49 56.1          20.3 VVEC059033
         K19C01N  C2019 02 06.98987 10 49 45.12 +16 09 20.7          21.3 VVEC059033
         K19C01N  C2019 02 06.99242 10 49 45.08 +16 09 34.6          20.6 VVEC059033
         K19C01N  C2019 02 06.99498 10 49 44.99 +16 09 48.8          20.4 VVEC059033
         K19C01N  C2019 02 06.99760 10 49 44.94 +16 10 03.6          20.2 VVEC059033
         K19C01N KC2019 02 07.05049 10 49 43.45 +16 14 56.9          20.8 RoEC059K88
         K19C01N KC2019 02 07.05531 10 49 43.34 +16 15 23.2          21.0 RoEC059K88
         K19C01N KC2019 02 07.06255 10 49 43.17 +16 16 02.6          20.1 RoEC059K88
         K19C01N  C2019 02 07.17815 10 49 40.54 +16 26 37.0          20.8 VVEC059033
         K19C01N  C2019 02 07.18098 10 49 40.42 +16 26 52.6          21.9 VVEC059033
         K19C01N  C2019 02 07.18381 10 49 40.40 +16 27 08.2          21.4 VVEC059033
         K19C01N  C2019 02 07.18663 10 49 40.35 +16 27 23.5          21.2 VVEC059033
    
    Observer details:
    033 Karl Schwarzschild Observatory, Tautenburg.  Observers C. Hoegner,
        B. Stecklum.  Measurer B. Stecklum.  1.34-m f/3 Schmidt + CCD.
    711 McDonald Observatory, Fort Davis.  Observer J. G. Ries.  2.1-m reflector
        + CCD + focal reducer.
    F51 Pan-STARRS 1, Haleakala.  Observers J. Bulger, T. Lowe, A. Schultz,
        M. Willman.  Measurers K. Chambers, S. Chastel, L. Denneau, J. Fairlamb,
        H. Flewelling, M. Huber, C.-C. Lin, E. Magnier, Y. Ramanjooloo,
        R. Wainscoat, R. Weryk.  1.8-m Ritchey-Chretien + CCD.
    K88 GINOP-KHK, Piszkesteto.  Observer K. Sarneczky.  1.02-m
        Ritchey-Chretien + CCD.
    L01 Visnjan Observatory, Tican.  Observers K. Korlevic, G. Kervina, V. Brcic,
        F. Valentine.  Measurer K. Korlevic.  1.0-m f/2.9 reflector + CCD.
    
    Orbital elements:
    2019 CN1                                                 Earth MOID = 0.3232 AU
    Epoch 2019 Apr. 27.0 TT = JDT 2458600.5                 MPC
    M  41.34061              (2000.0)            P               Q
    n   0.28624424     Peri.  309.00662     -0.08806329     -0.91830111
    a   2.2802277      Node   140.26553     +0.99282013     -0.04942719
    e   0.4808785      Incl.   37.14211     -0.08095092     +0.39278497
    P   3.44           H   21.0           G   0.15           U   8
    Residuals in seconds of arc
    190204 F51  0.5-  0.0     190205 711  0.5-  0.5-    190206 033  0.7-  0.5-
    190204 F51  0.6-  0.0     190205 711  0.4-  0.2-    190206 033  0.5-  0.1-
    190204 F51  0.6-  0.0     190206 K88  0.5-  0.6+    190207 K88  0.9-  0.5+
    190204 F51  0.5-  0.2-    190206 K88  0.4-  0.3+    190207 K88  0.8-  0.3+
    190204 L01  0.7-  0.2-    190206 K88  0.3-  0.1+    190207 K88  0.6-  0.2-
    190204 L01  1.0-  0.1-    190206 033  0.4-  0.0     190207 033  0.3-  0.2-
    190204 L01  0.6-  0.1-    190206 033  0.3-  0.1-    190207 033  1.0-  0.1-
    190205 L01  0.1-  0.5-    190206 033  0.6-  0.2-    190207 033  0.4-  0.0
    190205 L01  0.5-  0.2-    190206 033  0.6-  0.4-    190207 033  0.2-  0.1-
    190205 711  0.6-  0.1+    190206 033  0.3-  0.5-
    
    Ephemeris:
    2019 CN1                 a,e,i = 2.28, 0.48, 37                  q = 1.1837
    Date    TT    R. A. (2000) Decl.     Delta      r     Elong.  Phase     V
    2019 01 08    10 36 48.1 -24 47 00   0.4796  1.2447   111.9    47.1    21.7
    ...
    2019 01 23    10 49 03.2 -07 11 20   0.4080  1.3023   134.3    32.7    21.0
    ...
    2019 01 31    10 50 50.4 +05 06 16   0.3964  1.3389   148.4    22.7    20.7
    ...
    2019 02 06    10 50 02.3 +14 37 50   0.4047  1.3685   157.4    16.1    20.6
    2019 02 07    10 49 44.7 +16 10 25   0.4076  1.3736   158.5    15.3    20.6
    2019 02 08    10 49 24.6 +17 41 37   0.4109  1.3787   159.5    14.5    20.6
    ...
    2019 02 14    10 46 39.4 +26 09 29   0.4393  1.4104   161.2    13.1    20.7
    ...
    2019 02 22    10 41 41.0 +35 11 35   0.4975  1.4546   154.7    16.9    21.2
    ...
    2019 03 09    10 32 35.5 +45 13 00   0.6512  1.5421   138.5    25.2    22.2
    
    A. U. Tomatic                (C) Copyright 2019 MPC           M.P.E.C. 2019-C59
    

    Read MPEC 2019-C58 Read MPEC 2019-C60


    MPEC number:

    Enter an MPEC number in one of the following forms:

    • 1997-B01 (the full form)
    • J97B01 (the packed version of the full form)
    • B01 (the abbreviated form)